Home > Weather > Amsterdam > Past weeks

Flag for Netherlands Weather for the Past 2 Weeks in Amsterdam, Netherlands

Now
45 °F

Passing clouds.


Feels Like: 38 °F
Forecast: 33 / 41 °F
Wind: 13 mph from West

Location: Amsterdam Schiphol Airport

Current Time: Feb 11, 2016 at 4:45:06 PM

Latest Report: Feb 11, 2016 at 3:55 PM


Visibility: N/A

Pressure: 29.62 "Hg

Humidity: 66%

Dew point: 34 °F

Location of AmsterdamLocation

Historic Weather in Amsterdam — Graph

°F

Amsterdam Temperature Yesterday

Maximum temperature yesterday: 46 °F (at 10:55 AM)
Minimum temperature yesterday: 37 °F (at 2:25 AM)
Average temperature yesterday: 42 °F

High & Low Weather Summary for the Past Weeks

 TemperatureHumidityPressure
High54 °F (Jan 27, 3:25 PM)100% (Jan 27, 10:55 PM)30.27 "Hg (Jan 27, 10:55 PM)
Low36 °F (Feb 11, 2:25 AM)57% (Jan 30, 8:55 PM)28.94 "Hg (Feb 9, 3:25 PM)
Average46 °F80%29.72 "Hg
* Reported Jan 27 3:25 PM — Feb 11 3:55 PM, Amsterdam, Weather by CustomWeather, © 2016

Note: Actual official high and low records may vary slightly from our data, if they occured in-between our weather recording intervals... More about our weather records

Advertising

Amsterdam Weather History for the Previous 24 Hours

 ConditionsComfort  
Time TempWeatherWind HumidityBarometerVisibility
3:55 PM
Thu, Feb 11
45 °FPassing clouds.13 mph66%29.62 "HgN/A
3:25 PM45 °FPassing clouds.12 mph66%29.62 "HgN/A
2:55 PM45 °FPassing clouds.15 mph71%29.62 "HgN/A
2:25 PM46 °FPassing clouds.16 mph66%29.62 "HgN/A
1:55 PM45 °FScattered clouds.16 mph71%29.62 "HgN/A
1:25 PM45 °FScattered clouds.14 mph71%29.62 "HgN/A
12:55 PM43 °FScattered clouds.14 mph71%29.62 "HgN/A
12:25 PM43 °FScattered clouds.12 mph71%29.62 "HgN/A
11:55 AM45 °FScattered clouds.16 mph71%29.62 "HgN/A
11:25 AM45 °FScattered clouds.16 mph71%29.62 "HgN/A
10:55 AM45 °FPassing clouds.15 mph71%29.62 "HgN/A
10:25 AM45 °FPassing clouds.13 mph76%29.62 "HgN/A
9:55 AM43 °FPassing clouds.10 mph81%29.59 "HgN/A
9:25 AM41 °FPassing clouds.9 mph81%29.59 "HgN/A
8:55 AM39 °FPassing clouds.10 mph87%29.59 "HgN/A
8:25 AM39 °FPassing clouds.10 mph81%29.59 "HgN/A
7:55 AM39 °FPassing clouds.10 mph81%29.59 "HgN/A
7:25 AM39 °FPassing clouds.10 mph81%29.59 "HgN/A
6:55 AM36 °FPassing clouds.8 mph87%29.59 "HgN/A
6:25 AM37 °FPassing clouds.9 mph81%29.59 "HgN/A
5:55 AM37 °FPassing clouds.9 mph81%29.56 "HgN/A
5:25 AM37 °FPassing clouds.9 mph81%29.56 "HgN/A
4:55 AM37 °FPassing clouds.9 mph81%29.56 "HgN/A
4:25 AM39 °FPassing clouds.8 mph75%29.56 "HgN/A
3:55 AM37 °FPassing clouds.8 mph87%29.56 "HgN/A
2:55 AM37 °FClear.8 mph81%29.56 "Hg10 mi
2:25 AM36 °FClear.8 mph87%29.56 "Hg10 mi
1:55 AM37 °FClear.8 mph81%29.53 "Hg10 mi
1:25 AM37 °FPassing clouds.8 mph81%29.53 "HgN/A
12:55 AM37 °FPassing clouds.9 mph87%29.53 "HgN/A
12:25 AM39 °FPassing clouds.10 mph81%29.53 "HgN/A
11:55 PM
Wed, Feb 10
39 °FScattered showers. Passing clouds.13 mph87%29.50 "HgN/A
11:25 PM41 °FScattered showers. Passing clouds.13 mph76%29.50 "HgN/A
10:55 PM39 °FPassing clouds.10 mph87%29.50 "HgN/A
10:25 PM41 °FScattered showers. Passing clouds.15 mph81%29.50 "HgN/A
9:55 PM41 °FPassing clouds.15 mph81%29.50 "HgN/A
9:25 PM41 °FPassing clouds.14 mph81%29.47 "HgN/A
8:55 PM41 °FScattered showers. Passing clouds.13 mph81%29.47 "HgN/A
8:25 PM43 °FPassing clouds.15 mph81%29.47 "HgN/A
7:55 PM41 °FPassing clouds.13 mph87%29.45 "HgN/A
7:25 PM41 °FPassing clouds.17 mph81%29.45 "HgN/A
6:55 PM43 °FPassing clouds.15 mph76%29.42 "HgN/A
6:25 PM43 °FPassing clouds.14 mph76%29.42 "HgN/A
5:55 PM43 °FScattered showers. Passing clouds.13 mph81%29.39 "HgN/A
5:25 PM43 °FScattered showers. Passing clouds.16 mph76%29.39 "HgN/A
4:55 PM45 °FScattered clouds.18 mph76%29.36 "HgN/A
4:25 PM45 °FPartly sunny.15 mph76%29.36 "HgN/A
Weather by CustomWeather, © 2016

See weather overviewHow to use our weather pages